Regional Weather Roundup
Issued by NWS

Home | Current Version | Previous Version | Graphics & Text | Print | Product List | Glossary On
Versions: 1 2 3 4 5 6 7 8 9 10 11 12 13 14 15 16 17 18 19 20 21 22 23 24 25 26 27 28 29 30 31 32 33 34 35 36 37 38 39 40 41 42 43 44 45 46 47 48 49 50
000
ASUS43 KDMX 070406
RWRIA

WEATHER ROUNDUP FOR IOWA
NATIONAL WEATHER SERVICE DES MOINES IA
1000 PM CST TUE DEC 06 2016

NOTE: "FAIR" INDICATES FEW OR NO CLOUDS BELOW 12,000 FEET WITH NO
SIGNIFICANT WEATHER AND/OR OBSTRUCTIONS TO VISIBILITY.

* - THESE STATIONS ARE NOT NWS STATIONS...THUS NOT UNDER NWS
QUALITY CONTROL.  THEY ALSO DO NOT REPORT WEATHER SUCH
AS PRECIPITATION OR FOG.

IAZ001>003-012>014-020>022-031>034-043>046-070500-
   NORTHWEST IOWA

CITY           SKY/WX    TMP DP  RH WIND       PRES   REMARKS
CARROLL *      CLEAR     21  12  68 W16       30.04R WCI   7
CHEROKEE *     CLEAR     16  10  74 W15       30.04S WCI   2
DENISON *      CLEAR     19  10  68 W17       30.05R WCI   4
LE MARS *      CLEAR     16   9  73 W16G23    30.09R WCI   0
ORANGE CITY *  PTCLDY    16  10  79 NW21G26   30.02S WCI  -2
SHELDON *      CLOUDY    14   9  79 W22G31    30.00R WCI  -4
SIOUX CITY     CLEAR     20   9  62 NW15G23   30.10R WCI   6
SPENCER        PTCLDY    15   9  76 W31G37    29.99R WCI  -6
STORM LAKE *   CLEAR     16   9  73 W24G36    30.01R WCI  -3
$$

IAZ055>058-069>071-079>083-090>094-070500-
   SOUTHWEST IOWA

CITY           SKY/WX    TMP DP  RH WIND       PRES   REMARKS
ATLANTIC *     CLEAR     23  14  68 W10       30.09R WCI  12
AUDUBON *      CLEAR     21  12  68 W6        30.06R WCI  14
CLARINDA *     CLEAR     23  14  68 SW6       30.14R WCI  16
COUNCIL BLFS * CLEAR     23  10  58 NW9       30.11R WCI  13
CRESTON *      CLEAR     23  14  68 W12       30.09R WCI  12
HARLAN  *      CLEAR     21  12  68 NW12      30.11S WCI   9
LAMONI         CLEAR     24  14  65 W9        30.09R WCI  14
RED OAK *      PTCLDY    23  14  68 W6        30.12R WCI  16
SHENANDOAH *   CLEAR     21  14  73 SW7       30.14R WCI  13
$$

IAZ047>049-059>061-072>074-084-070500-
   CENTRAL IOWA

CITY           SKY/WX    TMP DP  RH WIND       PRES   REMARKS
AMES           CLEAR     23  14  68 NW17G26   30.02S WCI   9
ANKENY *       CLEAR     25  12  58 W20G30    30.05R WCI  11
BOONE *        CLEAR     21  12  68 NW20G30   30.00R WCI   6
CHARITON *       N/A     27  14  59 W12       30.07R WCI  16
DES MOINES     CLEAR     26  13  57 W13       30.06R WCI  15
GRINNELL*      CLEAR     25  16  68 W16       30.01R WCI  13
KNOXVILLE *    CLEAR     25  14  63 W13       30.04R WCI  13
MARSHALLTOWN   CLEAR     23  15  71 W20G28    29.98S WCI   8
NEWTON *       CLEAR     25  16  68 W15       30.02R WCI  12
PELLA *        CLEAR     27  17  65 W15       30.06R WCI  15
PERRY *          N/A     23  17  78 W16       30.04R WCI  10
$$

IAZ004>006-015-016-023>025-035-036-070500-
   NORTH CENTRAL IOWA

CITY           SKY/WX    TMP DP  RH WIND       PRES   REMARKS
ALGONA *       CLOUDY    18  12  79 W20       29.98R WCI   1
CLARION *      CLEAR     19  12  73 W20G30    29.99R WCI   4
ESTHERVILLE    PTCLDY    15   9  76 W22G31    29.97R WCI  -3
FORT DODGE *   CLEAR     19   9  63 W14G22    30.01F WCI   6
MASON CITY     CLEAR     18  11  74 W26G36    29.96R WCI  -1
WEBSTER CITY * CLEAR     21  12  68 W22G31    29.98S WCI   5
IOWA FALLS *     N/A     22  15  74 W22G28    29.99R WCI   6
$$

IAZ007>011-017>019-026>030-037>042-050>054-066-070500-
   NORTHEAST IOWA

CITY           SKY/WX    TMP DP  RH WIND       PRES   REMARKS
CEDAR RAPIDS   CLEAR     24  18  77 W15       29.98R WCI  11
CHARLES CITY * CLOUDY    21  14  73 W22G30    29.94S WCI   5
CLINTON *      CLEAR     25  21  85 W10       29.99R WCI  15
DECORAH *      MIX PCPN  23  16  74 W10G28    29.89S WCI  12
DUBUQUE        FLURRIES  23  15  71 W14       29.93S WCI  11
MONTICELLO *   CLEAR     25  18  74 W12G18    29.96R WCI  14
OELWEIN *      CLEAR     23  14  68 W25G32    29.94F WCI   7
WATERLOO       CLEAR     22  12  65 W22G31    29.96S WCI   6
$$

IAZ064-065-067-068-078-070500-
   EAST CENTRAL IOWA

CITY           SKY/WX    TMP DP  RH WIND       PRES   REMARKS
DAVENPORT      CLEAR     27  19  72 W13       30.00R WCI  16
IOWA CITY      CLEAR     26  17  68 W9        30.02S WCI  17
MUSCATINE *    CLEAR     27  19  74 SW10      30.04R WCI  17
QUAD CITIES    CLEAR     30  17  58 W16G23    30.01R WCI  19
$$

IAZ062-063-075>077-085>089-095>099-070500-
   SOUTHEAST IOWA

CITY           SKY/WX    TMP DP  RH WIND       PRES   REMARKS
BURLINGTON     CLEAR     29  20  69 W9        30.06R WCI  20
FAIRFIELD *    CLEAR     27  16  63 W12       30.05R WCI  16
FORT MADISON * CLEAR     28  18  64 W8        30.08R WCI  20
KEOKUK *       PTCLDY    30  19  64 W12       30.08R WCI  21
OSKALOOSA *      N/A     25  18  74 W12       30.06R WCI  14
CENTERVILLE *    N/A     25  16  68 SW9       30.10R WCI  15
OTTUMWA        CLEAR     28  15  58 W16       30.06R WCI  16
WASHINGTON *   CLEAR     27  19  74 SW10      30.05R WCI  17
$$

ABBREVIATIONS USED IN REMARKS
   TC - TEMPERATURES IN CELSIUS
  WCI - WIND CHILL INDEX
   HX - HEAT INDEX
  VSB - VISIBILITY
$$





USA.gov is the U.S. government's official web portal to all federal, state and local government web resources and services.